Regional Weather Roundup
Issued by NWS

Home | Current Version | Previous Version | Text Only | Print | Product List | Glossary On
Versions: 1 2 3 4 5 6 7 8 9 10 11 12 13 14 15 16 17 18 19 20 21 22 23 24 25 26 27 28 29 30 31 32 33 34 35 36 37 38 39 40 41 42 43 44 45 46 47 48 49 50
000
ASUS46 KSEW 050910
RWRWA

WASHINGTON REGIONAL WEATHER ROUNDUP
NATIONAL WEATHER SERVICE SEATTLE WA
200 AM PDT WED AUG 05 2015

NOTE:"FAIR" INDICATES FEW OR NO CLOUDS BELOW 12,000 FEET WITH NO
SIGNIFICANT WEATHER AND/OR OBSTRUCTIONS TO VISIBILITY.

WAZ505-507>509-051000-
SEATTLE, TACOMA, EVERETT, AND VICINITY

CITY           SKY/WX    TMP DP  RH WIND       PRES   REMARKS
EVERETT        CLEAR     56  50  80 N6        30.04R
BOEING FIELD   PTCLDY    63  50  62 CALM      30.03R
RENTON         PTCLDY    61  52  72 SE3       30.03R
SEATAC AIRPORT PTCLDY    60  51  72 CALM      30.04S
JBLM-MCCHORD   CLEAR     57  51  80 SW8       30.03S
PUYALLUP       CLOUDY    54  52  94 CALM      30.05R
BREMERTON      PTCLDY    55  50  82 CALM      30.07R
JBLM-FT LEWIS  CLEAR     55  51  85 SE7       30.03R
TACOMA NARROWS CLEAR     57  51  80 S7        30.04S
$$

WAZ001-503-506-510-514-515-051000-
NORTH INTERIOR

CITY           SKY/WX    TMP DP  RH WIND       PRES   REMARKS
BELLINGHAM     PTCLDY    59  51  75 SE7       29.98S
FRIDAY HARBOR  PTCLDY    55  51  86 W5        29.99S
EASTSOUND      PTCLDY    55  52  88 S6        29.96S
PORT ANGELES   CLEAR     54  49  83 W8        30.02S
PORT TOWNSEND  FAIR      52  50  93 CALM      30.03R
NAS WHIDBEY    PTCLDY    56  52  86 SW15      30.05S
ARLINGTON      MOCLDY    55  45  67 N5        30.05S
BURLINGTON     MOCLDY    55  52  88 S7        30.02R
$$

WAZ020-022-039-040-504-511-512-051000-
SOUTHWEST INTERIOR

CITY           SKY/WX    TMP DP  RH WIND       PRES   REMARKS
SHELTON        CLEAR     53  49  86 SW3       30.01R
OLYMPIA        CLEAR     54  50  86 S7        30.03S
CHEHALIS       FAIR      55  54  94 CALM      30.06S
KELSO          CLOUDY    59  50  72 NE6       30.10R
VANCOUVER      PTCLDY    60  50  69 NW5       30.05R
SCAPPOOSE, OR  PTCLDY    58  50  75 VRB3      30.05R
PORTLAND, OR   PTCLDY    60  52  74 NW7       30.05S
$$

WAZ021-516-517-051000-
WASHINGTON COAST

CITY           SKY/WX    TMP DP  RH WIND       PRES   REMARKS
FORKS          CLOUDY    55  54  96 CALM      30.07F
HOQUIAM        CLEAR     57  53  86 W10       30.06S
ASTORIA, OR    CLOUDY    58  55  90 SW5       30.08S
$$

WAZ019-023-024-040-518-519-051000-
CASCADE MOUNTAINS AND COLUMBIA GORGE

CITY           SKY/WX    TMP DP  RH WIND       PRES   REMARKS
TROUTDALE, OR  PTCLDY    60  51  72 CALM      30.04S
THE DALLES, OR MOCLDY    69  45  41 W21G29    29.92S
$$

WAZ026-027-041>044-520-521-051000-
EAST SLOPES

CITY           SKY/WX    TMP DP  RH WIND       PRES   REMARKS
OMAK           PTCLDY    68  43  40 N8        29.84R
WENATCHEE      CLEAR     69  42  37 NW12      29.88R
ELLENSBURG     CLEAR     63  45  51 NW23      29.92F
YAKIMA         PTCLDY    68  43  40 NW10G21   29.91R
$$

WAZ028-034-035-051000-
COLUMBIA BASIN

CITY           SKY/WX    TMP DP  RH WIND       PRES   REMARKS
EPHRATA        CLEAR     70  40  33 VRB3      29.84R
MOSES LAKE     PTCLDY    67  38  34 W6        29.85S
PASCO          CLEAR     66  43  43 W3        29.87R
HERMISTON, OR  CLEAR     68  43  40 SW10      29.89R
$$

WAZ036>038-051000-
NORTHEAST WASHINGTON

CITY           SKY/WX    TMP DP  RH WIND       PRES   REMARKS
SPOKANE GEIGER CLOUDY    67  40  37 SE9       29.84F
SPOKANE FELTS  CLOUDY    70  42  36 CALM      29.84S
FAIRCHILD AFB  CLOUDY    67  34  29 SW3       29.85S
COEURDALENE,ID CLOUDY    68  45  42 SE8       29.84S
DEER PARK      CLOUDY    65  41  41 S6        29.83S
$$

WAZ029>033-051000-
SOUTHEAST WASHINGTON

CITY           SKY/WX    TMP DP  RH WIND       PRES   REMARKS
PULLMAN        MOCLDY    69  36  29 SW14      29.93R
LEWISTON, ID   LGT RAIN  74  42  31 SE3       29.84R
WALLA WALLA    CLEAR     69  40  34 S10       29.91R
PENDLETON, OR  CLEAR     68  36  30 W14       29.92R
$$


USA.gov is the U.S. government's official web portal to all federal, state and local government web resources and services.